Time,TemperatureF,DewpointF,PressureIn,WindDirection,WindDirectionDegrees,WindSpeedMPH,WindSpeedGustMPH,Humidity,HourlyPrecipIn,Conditions,Clouds,dailyrainin,SolarRadiationWatts/m^2,SoftwareType,DateUTC
2013-11-20 00:13:00,33.5,22.0,30.29,NNW,342,5.0,12.0,63,0.00,,,0.00,0,weatherlink.com 1.10,2013-11-20 05:13:00,
2013-11-20 00:28:00,33.3,21.0,30.29,NNW,331,4.0,13.0,62,0.00,,,0.00,0,weatherlink.com 1.10,2013-11-20 05:28:00,
2013-11-20 00:44:00,33.1,22.0,30.31,North,355,7.0,11.0,63,0.00,,,0.00,0,weatherlink.com 1.10,2013-11-20 05:44:00,
2013-11-20 00:59:00,32.9,21.0,30.31,North,355,5.0,13.0,62,0.00,,,0.00,0,weatherlink.com 1.10,2013-11-20 05:59:00,
2013-11-20 01:14:00,32.8,21.0,30.32,NNW,347,3.0,8.0,62,0.00,,,0.00,0,weatherlink.com 1.10,2013-11-20 06:14:00,
2013-11-20 01:29:00,32.6,20.0,30.32,North,355,8.0,14.0,61,0.00,,,0.00,0,weatherlink.com 1.10,2013-11-20 06:29:00,
2013-11-20 01:44:00,32.5,20.0,30.33,NNW,328,4.0,10.0,61,0.00,,,0.00,0,weatherlink.com 1.10,2013-11-20 06:44:00,
2013-11-20 01:59:00,32.5,20.0,30.34,North,360,3.0,10.0,60,0.00,,,0.00,0,weatherlink.com 1.10,2013-11-20 06:59:00,
2013-11-20 02:14:00,32.3,20.0,30.34,WNW,298,11.0,13.0,60,0.00,,,0.00,0,weatherlink.com 1.10,2013-11-20 07:14:00,
2013-11-20 02:29:00,32.2,20.0,30.34,North,355,2.0,8.0,62,0.00,,,0.00,0,weatherlink.com 1.10,2013-11-20 07:29:00,
2013-11-20 02:44:00,32.0,20.0,30.35,North,360,6.0,10.0,61,0.00,,,0.00,0,weatherlink.com 1.10,2013-11-20 07:44:00,
2013-11-20 02:59:00,31.8,20.0,30.36,NW,321,4.0,9.0,61,0.00,,,0.00,0,weatherlink.com 1.10,2013-11-20 07:59:00,
2013-11-20 03:14:00,31.6,20.0,30.36,NNW,333,3.0,6.0,62,0.00,,,0.00,0,weatherlink.com 1.10,2013-11-20 08:14:00,
2013-11-20 03:29:00,31.3,20.0,30.36,North,360,3.0,8.0,63,0.00,,,0.00,0,weatherlink.com 1.10,2013-11-20 08:29:00,
2013-11-20 03:44:00,31.1,20.0,30.36,North,350,3.0,9.0,63,0.00,,,0.00,0,weatherlink.com 1.10,2013-11-20 08:44:00,
2013-11-20 03:59:00,31.0,20.0,30.37,North,360,4.0,12.0,64,0.00,,,0.00,0,weatherlink.com 1.10,2013-11-20 08:59:00,
2013-11-20 04:14:00,30.8,20.0,30.38,NNW,331,6.0,10.0,64,0.00,,,0.00,0,weatherlink.com 1.10,2013-11-20 09:14:00,
2013-11-20 04:29:00,30.7,20.0,30.38,North,355,6.0,10.0,64,0.00,,,0.00,0,weatherlink.com 1.10,2013-11-20 09:29:00,
2013-11-20 04:44:00,30.5,20.0,30.39,NW,305,3.0,11.0,64,0.00,,,0.00,0,weatherlink.com 1.10,2013-11-20 09:44:00,
2013-11-20 04:59:00,30.4,19.0,30.40,North,355,6.0,14.0,64,0.00,,,0.00,0,weatherlink.com 1.10,2013-11-20 09:59:00,
2013-11-20 05:14:00,30.3,19.0,30.41,North,355,6.0,8.0,63,0.00,,,0.00,0,weatherlink.com 1.10,2013-11-20 10:14:00,
2013-11-20 05:29:00,30.1,18.0,30.41,North,355,3.0,11.0,62,0.00,,,0.00,0,weatherlink.com 1.10,2013-11-20 10:29:00,
2013-11-20 05:45:00,29.9,18.0,30.43,NNW,348,4.0,10.0,62,0.00,,,0.00,0,weatherlink.com 1.10,2013-11-20 10:45:00,
2013-11-20 06:00:00,29.7,18.0,30.43,NNW,331,2.0,8.0,61,0.00,,,0.00,0,weatherlink.com 1.10,2013-11-20 11:00:00,
2013-11-20 06:15:00,29.6,18.0,30.45,NNW,342,6.0,9.0,61,0.00,,,0.00,0,weatherlink.com 1.10,2013-11-20 11:15:00,
2013-11-20 06:30:00,29.5,17.0,30.46,NNW,348,2.0,9.0,60,0.00,,,0.00,0,weatherlink.com 1.10,2013-11-20 11:30:00,
2013-11-20 06:45:00,29.4,17.0,30.47,NNW,333,1.0,6.0,60,0.00,,,0.00,5,weatherlink.com 1.10,2013-11-20 11:45:00,
2013-11-20 07:00:00,29.3,17.0,30.47,North,355,9.0,9.0,60,0.00,,,0.00,16,weatherlink.com 1.10,2013-11-20 12:00:00,
2013-11-20 07:15:00,29.4,17.0,30.48,NNW,336,5.0,9.0,61,0.00,,,0.00,25,weatherlink.com 1.10,2013-11-20 12:15:00,
2013-11-20 07:31:00,29.7,17.0,30.48,North,5,1.0,5.0,60,0.00,,,0.00,26,weatherlink.com 1.10,2013-11-20 12:31:00,
2013-11-20 07:46:00,30.1,18.0,30.49,NNE,12,7.0,8.0,60,0.00,,,0.00,70,weatherlink.com 1.10,2013-11-20 12:46:00,
2013-11-20 08:01:00,30.4,17.0,30.49,NNW,333,5.0,11.0,59,0.00,,,0.00,79,weatherlink.com 1.10,2013-11-20 13:01:00,
2013-11-20 08:16:00,30.8,18.0,30.50,NNW,344,4.0,11.0,60,0.00,,,0.00,104,weatherlink.com 1.10,2013-11-20 13:16:00,
2013-11-20 08:31:00,31.2,18.0,30.51,North,360,9.0,14.0,58,0.00,,,0.00,111,weatherlink.com 1.10,2013-11-20 13:31:00,
2013-11-20 08:46:00,31.5,18.0,30.52,NNE,13,10.0,14.0,58,0.00,,,0.00,151,weatherlink.com 1.10,2013-11-20 13:46:00,
2013-11-20 09:01:00,32.0,19.0,30.52,NNE,28,6.0,13.0,58,0.00,,,0.00,211,weatherlink.com 1.10,2013-11-20 14:01:00,
2013-11-20 09:17:00,32.6,18.0,30.52,NNE,15,7.0,16.0,56,0.00,,,0.00,239,weatherlink.com 1.10,2013-11-20 14:17:00,
2013-11-20 09:32:00,33.4,19.0,30.53,NNE,22,5.0,11.0,55,0.00,,,0.00,399,weatherlink.com 1.10,2013-11-20 14:32:00,
2013-11-20 09:47:00,33.8,19.0,30.53,NNE,27,6.0,15.0,54,0.00,,,0.00,403,weatherlink.com 1.10,2013-11-20 14:47:00,
2013-11-20 10:02:00,34.4,19.0,30.54,North,355,8.0,14.0,54,0.00,,,0.00,452,weatherlink.com 1.10,2013-11-20 15:02:00,
2013-11-20 10:18:00,35.3,19.0,30.54,West,272,5.0,10.0,51,0.00,,,0.00,408,weatherlink.com 1.10,2013-11-20 15:18:00,
2013-11-20 10:33:00,36.4,19.0,30.54,NNE,20,5.0,9.0,50,0.00,,,0.00,480,weatherlink.com 1.10,2013-11-20 15:33:00,
2013-11-20 10:48:00,36.7,19.0,30.53,NNE,26,7.0,12.0,49,0.00,,,0.00,482,weatherlink.com 1.10,2013-11-20 15:48:00,
2013-11-20 11:03:00,37.7,19.0,30.53,NNE,12,7.0,13.0,47,0.00,,,0.00,519,weatherlink.com 1.10,2013-11-20 16:03:00,
2013-11-20 11:18:00,38.2,18.0,30.52,NNW,345,1.0,10.0,45,0.00,,,0.00,547,weatherlink.com 1.10,2013-11-20 16:18:00,
2013-11-20 11:33:00,39.1,19.0,30.52,NNE,15,3.0,13.0,44,0.00,,,0.00,512,weatherlink.com 1.10,2013-11-20 16:33:00,
2013-11-20 11:48:00,39.4,17.0,30.51,North,355,3.0,12.0,40,0.00,,,0.00,508,weatherlink.com 1.10,2013-11-20 16:48:00,
2013-11-20 12:03:00,39.9,17.0,30.51,North,350,4.0,14.0,39,0.00,,,0.00,510,weatherlink.com 1.10,2013-11-20 17:03:00,
2013-11-20 12:19:00,40.4,16.0,30.51,NNE,15,1.0,13.0,37,0.00,,,0.00,550,weatherlink.com 1.10,2013-11-20 17:19:00,
2013-11-20 12:35:00,41.5,16.0,30.51,NNW,339,7.0,11.0,36,0.00,,,0.00,566,weatherlink.com 1.10,2013-11-20 17:35:00,
2013-11-20 12:49:00,41.1,16.0,30.51,NNE,18,9.0,12.0,37,0.00,,,0.00,543,weatherlink.com 1.10,2013-11-20 17:49:00,
2013-11-20 13:05:00,41.8,16.0,30.51,North,350,5.0,8.0,36,0.00,,,0.00,497,weatherlink.com 1.10,2013-11-20 18:05:00,
2013-11-20 13:20:00,42.5,15.0,30.51,NE,43,4.0,10.0,33,0.00,,,0.00,475,weatherlink.com 1.10,2013-11-20 18:20:00,
2013-11-20 13:35:00,41.9,14.0,30.51,NNW,329,4.0,11.0,32,0.00,,,0.00,392,weatherlink.com 1.10,2013-11-20 18:35:00,
2013-11-20 13:50:00,41.4,13.0,30.51,NNE,30,6.0,11.0,32,0.00,,,0.00,369,weatherlink.com 1.10,2013-11-20 18:50:00,
2013-11-20 14:05:00,41.5,14.0,30.50,North,5,3.0,12.0,33,0.00,,,0.00,274,weatherlink.com 1.10,2013-11-20 19:05:00,
2013-11-20 14:20:00,41.6,14.0,30.51,NE,55,6.0,13.0,33,0.00,,,0.00,322,weatherlink.com 1.10,2013-11-20 19:20:00,
2013-11-20 14:35:00,41.9,15.0,30.52,NE,38,4.0,12.0,33,0.00,,,0.00,290,weatherlink.com 1.10,2013-11-20 19:35:00,
2013-11-20 14:50:00,41.6,15.0,30.52,North,5,8.0,9.0,34,0.00,,,0.00,241,weatherlink.com 1.10,2013-11-20 19:50:00,
2013-11-20 15:05:00,41.6,16.0,30.52,NNE,13,2.0,6.0,36,0.00,,,0.00,186,weatherlink.com 1.10,2013-11-20 20:05:00,
2013-11-20 15:21:00,41.7,16.0,30.52,NNW,348,4.0,7.0,35,0.00,,,0.00,77,weatherlink.com 1.10,2013-11-20 20:21:00,
2013-11-20 15:35:00,41.9,14.0,30.52,NNW,327,1.0,6.0,32,0.00,,,0.00,76,weatherlink.com 1.10,2013-11-20 20:35:00,
2013-11-20 15:51:00,41.9,15.0,30.53,NNW,346,2.0,6.0,33,0.00,,,0.00,19,weatherlink.com 1.10,2013-11-20 20:51:00,
2013-11-20 16:06:00,41.6,14.0,30.54,WNW,303,1.0,3.0,33,0.00,,,0.00,12,weatherlink.com 1.10,2013-11-20 21:06:00,
2013-11-20 16:21:00,41.1,15.0,30.54,NNW,329,0.0,1.0,35,0.00,,,0.00,7,weatherlink.com 1.10,2013-11-20 21:21:00,
2013-11-20 16:36:00,39.9,16.0,30.55,NNW,328,0.0,1.0,38,0.00,,,0.00,0,weatherlink.com 1.10,2013-11-20 21:36:00,
2013-11-20 16:51:00,37.5,16.0,30.55,NNW,328,0.0,1.0,42,0.00,,,0.00,0,weatherlink.com 1.10,2013-11-20 21:51:00,
2013-11-20 17:06:00,35.5,18.0,30.55,NNW,328,0.0,1.0,49,0.00,,,0.00,0,weatherlink.com 1.10,2013-11-20 22:06:00,
2013-11-20 17:21:00,34.1,18.0,30.56,NNW,328,0.0,1.0,53,0.00,,,0.00,0,weatherlink.com 1.10,2013-11-20 22:21:00,
2013-11-20 17:37:00,32.7,18.0,30.56,NNW,328,1.0,2.0,54,0.00,,,0.00,0,weatherlink.com 1.10,2013-11-20 22:37:00,
2013-11-20 17:52:00,31.8,19.0,30.56,NNW,328,0.0,0.0,60,0.00,,,0.00,0,weatherlink.com 1.10,2013-11-20 22:52:00,
2013-11-20 18:07:00,30.9,18.0,30.57,NNW,328,0.0,0.0,59,0.00,,,0.00,0,weatherlink.com 1.10,2013-11-20 23:07:00,
2013-11-20 18:22:00,30.4,19.0,30.57,NNW,328,0.0,1.0,62,0.00,,,0.00,0,weatherlink.com 1.10,2013-11-20 23:22:00,
2013-11-20 18:37:00,29.9,18.0,30.57,NNW,328,0.0,1.0,61,0.00,,,0.00,0,weatherlink.com 1.10,2013-11-20 23:37:00,
2013-11-20 18:52:00,29.5,18.0,30.57,NNW,328,0.0,0.0,63,0.00,,,0.00,0,weatherlink.com 1.10,2013-11-20 23:52:00,
2013-11-20 19:08:00,29.2,18.0,30.58,NNW,328,0.0,0.0,63,0.00,,,0.00,0,weatherlink.com 1.10,2013-11-21 00:08:00,
2013-11-20 19:23:00,29.0,18.0,30.58,NNW,328,0.0,0.0,63,0.00,,,0.00,0,weatherlink.com 1.10,2013-11-21 00:23:00,
2013-11-20 19:38:00,28.6,18.0,30.59,NNW,328,0.0,0.0,66,0.00,,,0.00,0,weatherlink.com 1.10,2013-11-21 00:38:00,
2013-11-20 19:53:00,28.2,19.0,30.59,NNW,328,0.0,0.0,68,0.00,,,0.00,0,weatherlink.com 1.10,2013-11-21 00:53:00,
2013-11-20 20:08:00,27.7,18.0,30.59,NNW,328,0.0,0.0,68,0.00,,,0.00,0,weatherlink.com 1.10,2013-11-21 01:08:00,
2013-11-20 20:23:00,27.4,19.0,30.59,NNW,328,0.0,2.0,70,0.00,,,0.00,0,weatherlink.com 1.10,2013-11-21 01:23:00,
2013-11-20 20:38:00,27.3,19.0,30.59,NNW,328,0.0,0.0,71,0.00,,,0.00,0,weatherlink.com 1.10,2013-11-21 01:38:00,
2013-11-20 20:53:00,27.0,19.0,30.59,NNW,328,0.0,1.0,72,0.00,,,0.00,0,weatherlink.com 1.10,2013-11-21 01:53:00,
2013-11-20 21:09:00,26.6,19.0,30.59,NNW,328,0.0,0.0,72,0.00,,,0.00,0,weatherlink.com 1.10,2013-11-21 02:09:00,
2013-11-20 21:25:00,26.0,19.0,30.59,NNW,328,0.0,0.0,74,0.00,,,0.00,0,weatherlink.com 1.10,2013-11-21 02:25:00,
2013-11-20 21:39:00,25.7,19.0,30.59,NNW,328,0.0,1.0,75,0.00,,,0.00,0,weatherlink.com 1.10,2013-11-21 02:39:00,
2013-11-20 21:55:00,25.4,19.0,30.60,NNW,328,0.0,0.0,76,0.00,,,0.00,0,weatherlink.com 1.10,2013-11-21 02:55:00,
2013-11-20 22:09:00,25.2,19.0,30.60,NNW,328,0.0,1.0,76,0.00,,,0.00,0,weatherlink.com 1.10,2013-11-21 03:09:00,
2013-11-20 22:25:00,25.1,19.0,30.61,NNW,328,0.0,2.0,77,0.00,,,0.00,0,weatherlink.com 1.10,2013-11-21 03:25:00,
2013-11-20 22:39:00,24.9,19.0,30.61,NNW,328,0.0,2.0,77,0.00,,,0.00,0,weatherlink.com 1.10,2013-11-21 03:39:00,
2013-11-20 22:55:00,24.8,19.0,30.61,NNW,328,0.0,1.0,78,0.00,,,0.00,0,weatherlink.com 1.10,2013-11-21 03:55:00,
2013-11-20 23:10:00,24.5,19.0,30.62,NNW,328,0.0,0.0,78,0.00,,,0.00,0,weatherlink.com 1.10,2013-11-21 04:10:00,
2013-11-20 23:25:00,24.1,19.0,30.62,NNW,328,0.0,0.0,79,0.00,,,0.00,0,weatherlink.com 1.10,2013-11-21 04:25:00,
2013-11-20 23:40:00,23.7,18.0,30.61,NNW,328,0.0,0.0,80,0.00,,,0.00,0,weatherlink.com 1.10,2013-11-21 04:40:00,
2013-11-20 23:55:00,23.3,18.0,30.61,NNW,328,0.0,0.0,81,0.00,,,0.00,0,weatherlink.com 1.10,2013-11-21 04:55:00,